Location: Newark
(45.8667°N, 9.7333°E)
Time: 04:33:20
(UTC+00:00)

A-11 Canister half - Pass Details

Date: 20 January 2020
Orbit: 1517 x 1683 km, 47.2° (Epoch: 16 February)

Event Time Altitude Azimuth Distance (km) Brightness Sun altitude
Rises 02:40:27 0° 264° (W) 4,681 - -43.8°
Reaches altitude 10° 02:43:30 10° 265° (W) 3,689 - -43.3°
Maximum altitude 02:52:49 84° 354° (N) 1,530 - -41.8°
Exits shadow 02:54:37 63° 71° (ENE) 1,667 9.1 -41.5°
Drops below altitude 10° 03:02:10 10° 84° (E) 3,702 11.7 -40.2°
Sets 03:05:14 0° 85° (E) 4,699 12.4 -39.7°
